GW0200 Weather Reports


time (UTC)temp
C
wind
direction
speed
KPH
gust
KPH
rain 1hr
cm
rain 24hr
cm
rain mn
cm
humidity
%
barometer
mb
20260506062230 7 342 0.0 0.0 0.13 3.20 0.30 95 1002.5
20260506061736 7 342 0.0 3.2 0.13 3.17 0.28 95 1002.6
20260506061730 7 342 0.0 1.6 0.13 3.17 0.28 95 1002.5
20260506060726 7 342 0.0 3.2 0.15 3.17 0.28 95 1002.6
20260506060226 7 342 0.0 1.6 0.13 3.15 0.28 95 1002.8
20260506051356 7 321 0.0 4.8 0.13 3.05 0.15 95 1003.2
20260506050619 7 321 0.0 4.8 0.10 3.02 0.13 95 1003.2
20260506050114 7 289 1.6 4.8 0.13 3.02 0.13 95 1003.2
20260506045103 7 320 1.6 8.0 0.13 3.00 0.10 95 1003.4
20260506044555 7 0 0.0 6.4 0.13 3.00 0.10 95 1003.4
20260506044050 7 329 1.6 6.4 0.13 2.97 0.08 95 1003.4
20260506044045 7 329 1.6 6.4 0.15 2.97 0.08 95 1003.5
20260506043038 7 341 1.6 4.8 0.15 2.97 0.08 95 1003.4
20260506043033 7 5 1.6 4.8 0.15 2.95 0.08 95 1003.5
20260506042025 7 355 0.0 3.2 0.18 2.95 0.05 95 1003.6
20260506041520 8 53 0.0 4.8 0.20 2.95 0.05 95 1003.7
20260506041014 8 53 0.0 4.8 0.20 2.92 0.03 95 1003.8
20260506040508 8 300 0.0 6.4 0.23 2.92 0.03 95 1003.8
20260506040004 8 349 0.0 4.8 0.25 2.90 0.00 95 1003.7
20260506035959 8 341 1.6 4.8 0.30 2.90 2.90 95 1003.9
20260506035220 8 355 1.6 4.8 0.30 2.87 2.87 95 1003.9
20260506034443 8 297 1.6 4.8 0.30 2.84 2.84 95 1003.9
20260506033937 8 322 1.6 6.4 0.36 2.84 2.84 95 1004.0
20260506033432 8 297 1.6 6.4 0.36 2.82 2.82 95 1004.1
20260506032926 8 292 0.0 4.8 0.38 2.82 2.82 96 1004.0
20260506032420 8 342 0.0 3.2 0.41 2.79 2.79 96 1004.0
20260506031914 8 342 0.0 3.2 0.41 2.77 2.77 96 1003.9
20260506031408 8 28 1.6 4.8 0.43 2.74 2.74 96 1003.9
20260506030902 8 350 1.6 4.8 0.46 2.72 2.72 95 1004.1
20260506030356 8 342 1.6 3.2 0.43 2.67 2.67 95 1003.9
20260506025851 8 331 1.6 6.4 0.41 2.62 2.64 95 1003.9
20260506025845 8 355 1.6 6.4 0.41 2.59 2.59 95 1004.0
20260506024837 8 313 1.6 4.8 0.43 2.57 2.57 95 1003.6
20260506024602 8 300 0.0 3.2 0.43 2.54 2.54 95 1003.6
20260506023826 8 300 0.0 4.8 0.38 2.49 2.49 95 1003.6
20260506023552 8 345 0.0 4.8 0.36 2.46 2.46 95 1003.5
20260506022813 8 323 0.0 4.8 0.36 2.44 2.44 95 1003.4
20260506022309 8 323 0.0 4.8 0.30 2.39 2.39 95 1003.5
20260506022032 8 306 0.0 0.0 0.28 2.36 2.36 96 1003.5
20260506021255 8 306 0.0 0.0 0.23 2.31 2.31 95 1003.3
20260506020749 8 305 0.0 0.0 0.20 2.26 2.26 95 1003.5
20260506020243 9 305 0.0 1.6 0.20 2.24 2.24 95 1003.5
20260506015740 9 306 0.0 3.2 0.20 2.21 2.21 95 1003.5
20260506015232 9 305 0.0 3.2 0.23 2.18 2.18 96 1003.6
20260506014726 8 306 0.0 1.6 0.20 2.13 2.13 95 1003.5
20260506014221 8 306 0.0 0.0 0.20 2.11 2.11 95 1003.4
20260506013714 8 306 0.0 0.0 0.23 2.11 2.11 95 1003.4
20260506013207 8 306 0.0 0.0 0.20 2.08 2.08 95 1003.3
20260506012932 8 306 0.0 1.6 0.23 2.08 2.08 95 1003.3
20260506012156 8 305 0.0 1.6 0.23 2.08 2.08 95 1003.3
20260506011651 8 305 0.0 1.6 0.23 2.08 2.08 95 1003.1
20260506011144 8 305 0.0 1.6 0.20 2.06 2.06 95 1003.2
20260506010639 8 5 0.0 1.6 0.20 2.06 2.06 95 1003.1
20260506010634 8 5 0.0 1.6 0.18 2.03 2.03 95 1003.3
20260506005625 8 5 0.0 1.6 0.15 2.01 2.01 95 1003.3
20260506005119 8 5 0.0 3.2 0.10 1.96 1.96 95 1003.3
20260506004614 8 5 0.0 3.2 0.08 1.93 1.93 95 1003.0
20260506004108 8 326 0.0 1.6 0.08 1.91 1.91 95 1002.9
20260506004059 8 326 0.0 1.6 0.05 1.85 1.85 95 1002.9
20260506003603 8 326 0.0 1.6 0.08 1.88 1.88 95 1002.8
20260506002550 8 326 0.0 1.6 0.08 1.85 1.85 95 1003.0
20260506002311 8 326 0.0 1.6 0.13 1.85 1.85 95 1002.9
20260506002145 8 326 0.0 1.6 0.10 1.85 1.85 95 1002.9
20260506001031 8 326 0.0 1.6 0.15 1.85 1.85 95 1002.8
20260506000527 8 326 0.0 3.2 0.25 1.85 1.85 95 1002.6
20260506000026 8 326 0.0 3.2 0.28 1.85 1.85 95 1002.8
20260505235532 8 338 0.0 3.2 0.30 1.85 1.85 95 1002.6
20260505235028 8 278 0.0 3.2 0.30 1.85 1.85 95 1002.6
20260505234528 8 15 0.0 3.2 0.30 1.83 1.85 95 1003.1
20260505234028 8 281 0.0 3.2 0.33 1.83 1.83 95 1003.2
20260505233527 8 281 0.0 3.2 0.33 1.80 1.80 95 1003.3
20260505233024 8 355 0.0 4.8 0.36 1.80 1.80 95 1003.2
20260505232524 8 355 1.6 4.8 0.36 1.78 1.78 94 1003.3
20260505232025 8 339 1.6 6.4 0.41 1.75 1.75 94 1003.1
20260505231756 8 313 0.0 6.4 0.41 1.73 1.75 94 1003.3
20260505231022 8 325 0.0 3.2 0.38 1.70 1.70 94 1003.5
20260505230519 8 278 1.6 4.8 0.33 1.60 1.63 94 1003.5
20260505230017 8 329 1.6 6.4 0.33 1.57 1.57 94 1003.1
20260505225525 8 341 1.6 6.4 0.43 1.55 1.55 94 1003.0
20260505225518 8 312 1.6 6.4 0.36 1.55 1.55 94 1003.0
20260505224517 8 277 1.6 6.4 0.43 1.52 1.52 94 1003.3
20260505224014 8 347 1.6 6.4 0.41 1.50 1.50 94 1003.4
20260505223749 8 314 1.6 6.4 0.41 1.47 1.47 94 1003.3
20260505223010 8 327 1.6 6.4 0.43 1.45 1.45 94 1003.1
20260505222504 8 351 1.6 6.4 0.48 1.42 1.42 94 1003.2
20260505221958 8 326 1.6 6.4 0.51 1.35 1.35 93 1003.1
20260505221454 9 344 1.6 6.4 0.56 1.32 1.32 93 1003.3
20260505220954 9 273 1.6 9.7 0.61 1.32 1.32 93 1003.2
20260505220455 9 321 3.2 9.7 0.66 1.27 1.27 93 1003.1
20260505215952 9 351 1.6 8.0 0.66 1.24 1.24 93 1002.9
20260505215450 9 296 1.6 4.8 0.58 1.17 1.19 93 1003.0
20260505214957 9 21 1.6 4.8 0.56 1.12 1.12 93 1002.8
20260505214951 10 319 3.2 8.0 0.58 1.09 1.09 93 1002.8
20260505214224 10 349 3.2 11.3 0.64 1.07 1.07 93 1003.1
20260505214219 10 28 1.6 8.0 0.61 1.07 1.09 93 1003.0
20260505212948 10 343 3.2 12.9 0.69 1.02 1.02 93 1003.1
20260505212449 10 32 4.8 12.9 0.69 0.94 0.94 92 1003.2
20260505212220 10 347 4.8 19.3 0.56 0.81 0.84 92 1003.1
20260505211442 10 342 6.4 19.3 0.53 0.76 0.76 91 1003.0
20260505210950 11 312 4.8 16.1 0.41 0.61 0.64 91 1002.9
20260505210944 11 24 6.4 17.7 0.48 0.71 0.74 91 1002.6
20260505210214 12 290 4.8 14.5 0.41 0.58 0.58 92 1002.5
20260505205443 12 11 3.2 14.5 0.43 0.58 0.58 92 1002.5
20260505204944 12 273 1.6 6.4 0.43 0.56 0.56 92 1002.5
20260505204445 12 348 1.6 6.4 0.41 0.51 0.51 93 1002.6
20260505203944 12 322 1.6 4.8 0.38 0.46 0.48 92 1002.4
20260505203445 12 296 1.6 4.8 0.36 0.43 0.43 92 1002.5
20260505202939 12 338 1.6 4.8 0.28 0.33 0.33 92 1002.8
20260505202438 12 245 0.0 4.8 0.23 0.25 0.28 92 1002.5
20260505201939 12 333 0.0 4.8 0.23 0.25 0.25 91 1002.4
20260505201439 12 252 0.0 4.8 0.23 0.23 0.23 91 1002.5
20260505200938 12 80 0.0 3.2 0.23 0.23 0.23 91 1002.4
20260505200440 12 55 1.6 3.2 0.20 0.20 0.20 91 1002.6
20260505195938 12 302 0.0 3.2 0.18 0.18 0.18 90 1002.6
20260505195438 12 287 1.6 6.4 0.15 0.15 0.15 89 1002.8
20260505194939 13 252 3.2 6.4 0.13 0.13 0.13 89 1002.8
20260505194434 13 305 3.2 8.0 0.10 0.10 0.10 88 1002.9
20260505193935 13 313 3.2 9.7 0.08 0.08 0.08 87 1002.9
20260505193436 13 209 3.2 9.7 0.05 0.05 0.08 86 1002.6
20260505192935 13 323 3.2 9.7 0.05 0.05 0.05 86 1002.8
20260505192705 13 333 1.6 9.7 0.03 0.03 0.03 85 1002.8
20260505192205 14 309 1.6 6.4 0.03 0.03 0.03 85 1002.8
20260505191706 14 285 1.6 6.4 0.00 0.00 0.03 84 1002.8
20260505190941 14 342 3.2 6.4 0.00 0.00 0.00 83 1002.8
20260505190436 15 335 3.2 8.0 0.00 0.00 0.00 82 1002.8
20260505185935 15 269 3.2 19.3 0.00 0.00 0.00 81 1002.8
20260505185436 15 290 4.8 19.3 0.00 0.00 0.00 80 1002.8
20260505184934 15 323 6.4 17.7 0.00 0.00 0.00 78 1002.8
20260505184433 16 281 4.8 17.7 0.00 0.00 0.00 77 1002.8
20260505183930 16 323 4.8 12.9 0.00 0.00 0.00 76 1002.9
20260505183431 16 264 3.2 11.3 0.00 0.00 0.00 76 1002.9
20260505182930 16 344 3.2 6.4 0.00 0.00 0.00 76 1002.8
20260505182432 16 355 3.2 6.4 0.00 0.00 0.00 76 1002.8
20260505181931 16 273 3.2 9.7 0.00 0.00 0.00 76 1002.8
20260505181702 16 297 3.2 9.7 0.00 0.00 0.00 76 1002.6
20260505180930 16 290 3.2 8.0 0.00 0.00 0.00 76 1002.5
20260505180430 16 250 4.8 14.5 0.00 0.00 0.00 75 1002.6
20260505175932 16 318 4.8 16.1 0.00 0.00 0.00 75 1002.5
20260505175438 16 166 3.2 9.7 0.00 0.00 0.00 75 1002.5
20260505175431 16 157 4.8 16.1 0.00 0.00 0.00 75 1002.6
20260505174701 16 275 3.2 9.7 0.00 0.00 0.00 75 1002.5
20260505174157 16 292 4.8 16.1 0.00 0.00 0.00 76 1002.4
20260505173426 16 11 4.8 16.1 0.00 0.00 0.00 75 1002.4
20260505173159 16 333 4.8 12.9 0.00 0.00 0.00 76 1002.4
20260505172427 16 273 4.8 12.9 0.00 0.00 0.00 75 1002.3
20260505171927 16 22 4.8 12.9 0.00 0.00 0.00 75 1002.4
20260505171425 16 315 4.8 12.9 0.00 0.00 0.00 74 1002.4
20260505170922 16 344 3.2 12.9 0.00 0.00 0.00 75 1002.3
20260505170424 16 325 4.8 14.5 0.00 0.00 0.00 74 1002.3
20260505170155 16 215 4.8 14.5 0.00 0.00 0.00 74 1002.3
20260505165651 16 146 4.8 16.1 0.00 0.00 0.00 73 1002.3
20260505164920 16 286 4.8 16.1 0.00 0.00 0.00 72 1002.3
20260505164422 17 318 4.8 14.5 0.00 0.00 0.00 71 1002.3
20260505163920 17 325 4.8 16.1 0.00 0.00 0.00 69 1002.3
20260505163420 18 336 6.4 22.5 0.00 0.00 0.00 66 1002.2
20260505162920 18 323 6.4 22.5 0.00 0.00 0.00 63 1002.2
20260505162421 19 250 4.8 16.1 0.00 0.00 0.00 60 1002.0
20260505162154 20 126 8.0 24.1 0.00 0.00 0.00 60 1002.0
20260505161415 20 25 9.7 24.1 0.00 0.00 0.00 58 1001.8
20260505160910 20 173 8.0 25.7 0.00 0.00 0.00 61 1001.9
20260505160634 20 164 8.0 25.7 0.00 0.00 0.00 61 1001.8
20260505153327 19 282 6.4 22.5 0.00 0.00 0.00 61 1001.2
20260505152822 19 163 6.4 19.3 0.00 0.00 0.00 64 1001.0
20260505152315 18 215 6.4 19.3 0.00 0.00 0.00 63 1001.1
20260505151810 18 196 6.4 24.1 0.00 0.00 0.00 64 1001.1
20260505151305 18 323 6.4 19.3 0.00 0.00 0.00 65 1001.2
20260505150758 18 172 6.4 25.7 0.00 0.00 0.00 66 1001.2
20260505150252 18 166 6.4 25.7 0.00 0.00 0.00 67 1001.2
20260505140646 18 191 6.4 20.9 0.00 0.00 0.00 68 1000.6
20260505140140 17 136 6.4 20.9 0.00 0.00 0.00 70 1000.8
20260505124743 16 202 4.8 14.5 0.00 0.00 0.00 73 1000.9
20260505124003 16 157 4.8 14.5 0.00 0.00 0.00 73 1000.8
20260505123459 16 186 4.8 19.3 0.00 0.00 0.00 73 1000.7
20260505123223 16 268 4.8 19.3 0.00 0.00 0.00 72 1000.6
20260505122446 16 171 4.8 14.5 0.00 0.00 0.00 72 1000.6
20260505121940 16 248 4.8 14.5 0.00 0.00 0.00 72 1000.4
20260505121704 16 154 4.8 14.5 0.00 0.00 0.00 72 1000.2
20260505120928 16 215 4.8 20.9 0.00 0.00 0.00 72 1000.1
20260505120422 16 263 4.8 20.9 0.00 0.00 0.00 71 1000.0
20260505115916 16 182 4.8 14.5 0.00 0.00 0.00 71 999.8
20260505115410 16 153 4.8 14.5 0.00 0.00 0.00 70 999.9
20260505114903 16 237 6.4 14.5 0.00 0.00 0.00 69 999.9
20260505114359 17 208 8.0 20.9 0.00 0.00 0.00 67 999.9
20260505113857 17 195 9.7 25.7 0.00 0.00 0.00 66 1000.0
20260505113629 17 211 8.0 25.7 0.00 0.00 0.00 65 999.9
20260505113359 17 211 6.4 19.3 0.00 0.00 0.00 65 999.7
20260505112355 17 143 6.4 19.3 0.00 0.00 0.00 65 999.8
20260505111857 17 210 6.4 19.3 0.00 0.00 0.00 65 999.7
20260505111353 17 209 6.4 19.3 0.00 0.00 0.00 66 999.7
20260505110853 17 194 6.4 16.1 0.00 0.00 0.00 66 999.6
20260505110623 17 160 6.4 17.7 0.00 0.00 0.00 66 999.6
20260505101851 17 248 6.4 27.4 0.00 0.00 0.00 65 999.1
20260505101351 17 82 6.4 27.4 0.00 0.00 0.00 64 998.9
20260505100850 18 259 6.4 20.9 0.00 0.00 0.00 64 998.7
20260505100350 18 159 6.4 30.6 0.00 0.00 0.00 64 998.8
20260505095850 18 234 6.4 30.6 0.00 0.00 0.00 63 998.8
20260505095349 18 158 4.8 19.3 0.00 0.00 0.00 63 998.6
20260505094850 18 192 4.8 19.3 0.00 0.00 0.00 63 998.4
20260505094350 18 148 4.8 20.9 0.00 0.00 0.00 63 998.4
20260505093850 18 157 8.0 29.0 0.00 0.00 0.00 62 998.4
20260505093620 18 223 8.0 29.0 0.00 0.00 0.00 62 998.2
20260505092850 18 164 6.4 19.3 0.00 0.00 0.00 62 998.2
20260505092623 18 153 8.0 29.0 0.00 0.00 0.00 62 998.0
20260505091851 18 184 8.0 29.0 0.00 0.00 0.00 62 998.1
20260505091619 18 162 6.4 17.7 0.00 0.00 0.00 62 998.1
20260505090845 18 330 6.4 17.7 0.00 0.00 0.00 62 998.2
20260505090347 18 202 6.4 22.5 0.00 0.00 0.00 62 998.1
20260505085845 18 268 6.4 22.5 0.00 0.00 0.00 62 998.1
20260505085347 18 297 6.4 17.7 0.00 0.00 0.00 62 998.1
20260505084847 18 171 8.0 27.4 0.00 0.00 0.00 61 998.0
20260505084346 18 165 9.7 27.4 0.00 0.00 0.00 61 998.0
20260505084118 18 289 8.0 25.7 0.00 0.00 0.00 61 997.9
20260505083619 18 236 8.0 25.7 0.00 0.00 0.00 62 998.1
20260505082843 18 200 9.7 24.1 0.00 0.00 0.00 61 998.2
20260505082342 18 259 8.0 24.1 0.00 0.00 0.00 62 998.1
20260505081842 18 261 8.0 20.9 0.00 0.00 0.00 62 998.1
20260505081613 18 327 6.4 17.7 0.00 0.00 0.00 63 998.1
20260505080842 18 171 6.4 27.4 0.00 0.00 0.00 63 997.9
20260505080341 18 221 8.0 27.4 0.00 0.00 0.00 64 997.9
20260505075843 18 196 6.4 17.7 0.00 0.00 0.00 64 997.8
20260505075615 18 346 6.4 17.7 0.00 0.00 0.00 65 997.8
20260505074842 18 174 4.8 14.5 0.00 0.00 0.00 65 997.8
20260505074337 18 257 4.8 16.1 0.00 0.00 0.00 65 997.9
20260505073838 18 190 4.8 16.1 0.00 0.00 0.00 65 997.7
20260505073340 18 155 4.8 12.9 0.00 0.00 0.00 65 997.7
20260505073108 18 110 4.8 12.9 0.00 0.00 0.00 66 997.7
20260505072338 18 89 6.4 19.3 0.00 0.00 0.00 65 997.6
20260505071837 18 150 6.4 19.3 0.00 0.00 0.00 65 997.6
20260505071338 18 239 6.4 17.7 0.00 0.00 0.00 65 997.8
20260505070838 18 161 6.4 17.7 0.00 0.00 0.00 65 997.8